[TLELIST] Archives

 

[list_settings.list_name] Current TLEs

May 21st 2010 PST

HST 1 20580U 90037B 10141.11819311 .00000342 00000-0 13344-4 0 5686 2 20580 028.4686 056.5663 0003313 268.7388 091.2819 15.00973018900681 ISS (ZARYA) 1 25544U 98067A 10141.20405251 .00014920 00000-0 10575-3 0 1928 2 25544 051.6480 009.0403 0009879 340.5821 116.4338 15.74157649659227 CXO 1 25867U 99040B 10139.91666667 .00000349 00000-0 10000-3 0 4671 2 25867 066.9920 054.9296 8122195 275.2241 351.1169 00.37808243 6285 ____________________________________________________________________ These 2-Line ...Continue Reading

[list_settings.list_name] Current TLEs

May 20th 2010 PST

HST 1 20580U 90037B 10140.12080359 .00000344 00000-0 13527-4 0 5672 2 20580 028.4685 063.0764 0003378 257.6508 102.3718 15.00972641900534 ISS (ZARYA) 1 25544U 98067A 10140.25267521 .00013142 00000-0 93836-4 0 1879 2 25544 051.6476 013.9245 0009855 337.8543 124.1442 15.74122185659076 CXO 1 25867U 99040B 10139.91666667 .00000349 00000-0 10000-3 0 4671 2 25867 066.9920 054.9296 8122195 275.2241 351.1169 00.37808243 6285 ____________________________________________________________________ These 2-Line ...Continue Reading

[list_settings.list_name] Current TLEs

May 19th 2010 PST

HST 1 20580U 90037B 10139.12341334 .00000340 00000-0 13181-4 0 5664 2 20580 028.4684 069.5885 0003483 247.4495 112.5705 15.00972193900381 ISS (ZARYA) 1 25544U 98067A 10139.18052563 .00013315 00000-0 95140-4 0 1802 2 25544 051.6470 019.4342 0009749 334.2407 168.0106 15.74091691658903 CXO 1 25867U 99040B 10139.91666667 .00000349 00000-0 10000-3 0 4671 2 25867 066.9920 054.9296 8122195 275.2241 351.1169 00.37808243 6285 ____________________________________________________________________ These 2-Line ...Continue Reading

[list_settings.list_name] Current TLEs

May 18th 2010 PST

HST 1 20580U 90037B 10136.13124397 .00000403 00000-0 17980-4 0 5650 2 20580 028.4674 089.1232 0003569 216.6672 143.3634 15.00971439899937 ISS (ZARYA) 1 25544U 98067A 10138.28463123 .00011469 00000-0 82669-4 0 1743 2 25544 051.6474 024.0314 0009857 330.0955 131.9827 15.74063743658760 CXO 1 25867U 99040B 10137.29166667 .00000321 00000-0 10000-3 0 4664 2 25867 066.9866 055.1141 8115396 275.2086 353.7295 00.37800899 6274 ____________________________________________________________________ These 2-Line ...Continue Reading

[list_settings.list_name] Current TLEs

May 17th 2010 PST

HST 1 20580U 90037B 10136.13124397 .00000403 00000-0 17980-4 0 5650 2 20580 028.4674 089.1232 0003569 216.6672 143.3634 15.00971439899937 ISS (ZARYA) 1 25544U 98067A 10137.50506944 .00040133 00000-0 27729-3 0 1707 2 25544 051.6455 028.0392 0009599 326.4983 035.1636 15.74071491658641 CXO 1 25867U 99040B 10137.29166667 .00000321 00000-0 10000-3 0 4664 2 25867 066.9866 055.1141 8115396 275.2086 353.7295 00.37800899 6274 ____________________________________________________________________ These 2-Line ...Continue Reading

[list_settings.list_name] Current TLEs

May 16th 2010 PST

HST 1 20580U 90037B 10136.13124397 .00000403 00000-0 17980-4 0 5650 2 20580 028.4674 089.1232 0003569 216.6672 143.3634 15.00971439899937 ISS (ZARYA) 1 25544U 98067A 10136.48534722 .00002132 00000-0 18998-4 0 1636 2 25544 051.6474 033.2730 0009774 323.8814 015.6069 15.74031845658478 CXO 1 25867U 99040B 10137.29166667 .00000321 00000-0 10000-3 0 4664 2 25867 066.9866 055.1141 8115396 275.2086 353.7295 00.37800899 6274 ____________________________________________________________________ These 2-Line ...Continue Reading

[list_settings.list_name] Current TLEs

May 15th 2010 PST

HST 1 20580U 90037B 10133.13907466 .00000459 00000-0 22325-4 0 5642 2 20580 028.4674 108.6573 0003720 187.3225 172.7302 15.00970283899483 ISS (ZARYA) 1 25544U 98067A 10135.53659722 .00018137 00000-0 12832-3 0 1563 2 25544 051.6480 038.1380 0010117 321.1807 038.6748 15.74015585658322 CXO 1 25867U 99040B 10134.70833333 .00000371 00000-0 10000-3 0 4652 2 25867 066.9819 055.2345 8110157 275.2403 001.9607 00.37799160 6268 ____________________________________________________________________ These 2-Line ...Continue Reading

[list_settings.list_name] Current TLEs

May 14th 2010 PST

HST 1 20580U 90037B 10133.13907466 .00000459 00000-0 22325-4 0 5642 2 20580 028.4674 108.6573 0003720 187.3225 172.7302 15.00970283899483 ISS (ZARYA) 1 25544U 98067A 10134.34824350 .00015497 00000-0 11054-3 0 1495 2 25544 051.6477 044.2448 0009755 315.0337 146.6397 15.73972804658142 CXO 1 25867U 99040B 10134.70833333 .00000371 00000-0 10000-3 0 4652 2 25867 066.9819 055.2345 8110157 275.2403 001.9607 00.37799160 6268 ____________________________________________________________________ These 2-Line ...Continue Reading

[list_settings.list_name] Current TLEs

May 14th 2010 PST

HST 1 20580U 90037B 10133.13907466 .00000459 00000-0 22325-4 0 5642 2 20580 028.4674 108.6573 0003720 187.3225 172.7302 15.00970283899483 ISS (ZARYA) 1 25544U 98067A 10133.39686465 .00016468 00000-0 11740-3 0 1460 2 25544 051.6479 049.1251 0009580 310.6359 156.6406 15.73929661657998 CXO 1 25867U 99040B 10132.04166667 .00000468 00000-0 10000-3 0 4642 2 25867 066.9667 055.3811 8109079 275.2477 358.8927 00.37807098 6258 ____________________________________________________________________ These 2-Line ...Continue Reading

[list_settings.list_name] Current TLEs

May 12th 2010 PST

HST 1 20580U 90037B 10132.14168445 .00000481 00000-0 23979-4 0 5638 2 20580 028.4676 115.1693 0003756 177.5980 182.4627 15.00969892899335 ISS (ZARYA) 1 25544U 98067A 10132.37984110 .00013471 00000-0 97047-4 0 1360 2 25544 051.6467 054.3448 0009623 306.6120 154.2269 15.73886464657837 CXO 1 25867U 99040B 10132.04166667 .00000468 00000-0 10000-3 0 4642 2 25867 066.9667 055.3811 8109079 275.2477 358.8927 00.37807098 6258 ____________________________________________________________________ These 2-Line ...Continue Reading
  • This mailing list is a public mailing list - anyone may join or leave, at any time.
  • This mailing list is announce-only.

International Space Station (ISS) / Hubble Space Telescope (HST) / Chandra X-Ray Observatory Orbital Data via EMAIL

Privacy Policy:

Private list